Terminal Aerodrome Forecast
Issued by NWS Green Bay, WI

Home | Current Version | Previous Version | Graphics & Text | Print | Product List | Glossary On
Versions: 1 2 3 4 5 6 7 8 9 10 11 12 13 14 15 16 17 18 19 20 21 22 23 24 25 26 27 28 29 30 31 32 33 34 35 36 37 38 39 40 41 42 43
000
FTUS43 KGRB 250100 AAA
TAFGRB
TAF AMD
KGRB 250139Z 2502/2524 30010G17KT P6SM SCT018 OVC035
      TEMPO 2502/2506 -SN OVC018
     FM250600 28009G16KT P6SM OVC018
     FM251500 24008KT P6SM OVC025
     FM252100 19006KT P6SM BKN030 OVC100=

USA.gov is the U.S. government's official web portal to all federal, state and local government web resources and services.